Flag Weather past 2 weeks in Freiburg, Baden-Württemberg, Germany

Now
45 °F

Fog.


Feels Like: 45 °F
Forecast: 41 / 56 °F
Wind: 1 mph from Northwest

Location: Freiburg

Current Time: Nov 25, 2014 at 11:16:50 PM

Latest Report: Nov 25, 2014 at 9:00 PM


Visibility: 3 mi

Pressure: 30.11 "Hg

Humidity: 96%

Dew point: 44 °F

Location of FreiburgLocation

Historic Weather in Freiburg — Graph

°F

Freiburg temperature yesterday

Maximum temperature yesterday: 58 °F (at 2:00 PM)
Minimum temperature yesterday: 42 °F (at 3:00 AM)
Average temperature yesterday: 48 °F

Past Weeks' High & Low Weather Summary

 TemperatureHumidityPressure
High58 °F (Nov 24, 2:00 PM)100% (Nov 11, 12:00 AM)30.32 "Hg (Nov 11, 12:00 AM)
Low32 °F (Nov 20, 2:00 AM)64% (Nov 19, 2:00 PM)29.59 "Hg (Nov 15, 6:00 PM)
Average46 °F93%29.95 "Hg
* Reported Nov 10 9:00 PM — Nov 25 9:00 PM, Freiburg, Weather by CustomWeather, © 2014

Note: Actual official high and low records may vary slightly from our data, if they occured in-between our weather recording intervals... More about our weather records

Advertising

Freiburg weather history for previous 24 hours

 ConditionsComfort  
Time TempWeatherWind HumidityBarometerVisibility
9:00 PM
Nov 25
45 °FFog.1 mph96%30.11 "Hg3 mi
8:00 PM46 °FFog.1 mph93%30.11 "Hg3 mi
6:00 PM46 °FFog.2 mph93%30.11 "Hg3 mi
5:00 PM47 °FFog.1 mph93%30.12 "Hg3 mi
3:00 PM48 °FLow clouds.2 mph91%30.14 "Hg5 mi
2:00 PM47 °FLow clouds.2 mph90%30.15 "Hg5 mi
12:00 PM47 °FFog.2 mph92%30.17 "Hg4 mi
11:00 AM46 °FFog.2 mph95%30.18 "Hg3 mi
9:00 AM45 °FLow clouds.1 mph98%30.20 "Hg2 mi
8:00 AM45 °FFog.2 mph99%30.20 "Hg2 mi
6:00 AM45 °FFog.1 mph97%30.21 "Hg2 mi
5:00 AM45 °FFog.1 mph97%30.22 "Hg3 mi
3:00 AM46 °FLow clouds.2 mph100%30.24 "Hg0 mi
2:00 AM46 °FLow clouds.2 mph100%30.24 "Hg0 mi
12:00 AM47 °FLow clouds.2 mph99%30.26 "Hg1 mi
11:00 PM
Nov 24
47 °FFog.2 mph97%30.25 "Hg1 mi
Weather by CustomWeather, © 2014

See weather overviewHow to use our weather pages